Location: Brede
(50.9167°N, 0.6000°E)
Time: 09:50:51
(UTC+00:00)

A-11 Canister half - Pass Details

Date: 30 November 2020
Orbit: 1524 x 1684 km, 47.3° (Epoch: 20 January)

Event Time Altitude Azimuth Distance (km) Brightness Sun altitude
Rises 06:27:32 0° 238° (WSW) 4,932 11.3 -10.5°
Reaches altitude 10° 06:30:46 10° 236° (SW) 3,942 10.8 -10.1°
Maximum altitude 06:40:39 61° 159° (SSE) 1,853 9.7 -8.6°
Drops below altitude 10° 06:50:19 10° 83° (E) 3,864 12.1 -7.2°
Sets 06:53:26 0° 80° (E) 4,830 12.6 -6.8°
